• în România
  • Lista ţărilor
  • Pe 7 zile
  • Temperatura apei
  • Hartă satelitară
  • Meteo pe hartă
  • Widget-uri
  • user-avatar
    Intrare

    Meteo pe oră la Melbourne

    Astăzi, 17 Octombrie, Miercuri

    Timp Temperatura Precipitaţii Vânt Presiune Umiditate
    00:00 +17°C° 0 mm 3 m/s 758 mmHg 95%
    01:00 +16°C° 0 mm 3 m/s 758 mmHg 95%
    02:00 +16°C° 0.1 mm 3 m/s 758 mmHg 95%
    03:00 +16°C° 0.1 mm 2 m/s 758 mmHg 95%
    04:00 +15°C° 0 mm 2 m/s 758 mmHg 95%
    05:00 +16°C° 0.1 mm 2 m/s 758 mmHg 94%
    06:00 +16°C° 0.1 mm 2 m/s 758 mmHg 94%
    07:00 +16°C° 0.1 mm 2 m/s 758 mmHg 93%
    08:00 +17°C° 0.1 mm 2 m/s 758 mmHg 85%
    09:00 +19°C° 0.1 mm 3 m/s 758 mmHg 76%
    10:00 +20°C° 0 mm 3 m/s 759 mmHg 71%
    11:00 +20°C° 0.3 mm 3 m/s 758 mmHg 69%
    12:00 +21°C° 0.3 mm 4 m/s 758 mmHg 67%
    13:00 +21°C° 0.3 mm 4 m/s 758 mmHg 65%
    14:00 +21°C° 0.5 mm 4 m/s 757 mmHg 68%
    15:00 +21°C° 0.5 mm 3 m/s 757 mmHg 71%
    16:00 +20°C° 0 mm 3 m/s 757 mmHg 74%
    17:00 +18°C° 0.3 mm 3 m/s 757 mmHg 78%
    18:00 +17°C° 0.3 mm 2 m/s 757 mmHg 82%
    19:00 +16°C° 0.3 mm 2 m/s 758 mmHg 87%
    20:00 +15°C° 0.1 mm 2 m/s 758 mmHg 89%
    21:00 +15°C° 0.1 mm 2 m/s 758 mmHg 91%
    22:00 +14°C° 0.1 mm 2 m/s 758 mmHg 93%
    23:00 +14°C° 0.1 mm 2 m/s 758 mmHg 92%

    Mâine, 18 Octombrie, Joi

    Timp Temperatura Precipitaţii Vânt Presiune Umiditate
    00:00 +13°C° 0.1 mm 3 m/s 758 mmHg 92%
    01:00 +14°C° 0.1 mm 3 m/s 758 mmHg 91%
    02:00 +13°C° 0 mm 3 m/s 758 mmHg 91%
    03:00 +13°C° 0 mm 3 m/s 758 mmHg 91%
    04:00 +13°C° 0 mm 3 m/s 758 mmHg 91%
    05:00 +13°C° 0.1 mm 3 m/s 758 mmHg 90%
    06:00 +14°C° 0.1 mm 3 m/s 758 mmHg 88%
    07:00 +14°C° 0.1 mm 4 m/s 758 mmHg 87%
    08:00 +14°C° 0.3 mm 4 m/s 759 mmHg 87%
    09:00 +14°C° 0.3 mm 4 m/s 759 mmHg 87%
    10:00 +15°C° 0.3 mm 4 m/s 759 mmHg 87%
    11:00 +15°C° 0.3 mm 4 m/s 759 mmHg 86%
    12:00 +17°C° 0.3 mm 4 m/s 759 mmHg 86%
    13:00 +17°C° 0.3 mm 4 m/s 759 mmHg 86%
    14:00 +18°C° 0.3 mm 4 m/s 759 mmHg 82%
    15:00 +18°C° 0.3 mm 4 m/s 759 mmHg 79%
    16:00 +19°C° 0.3 mm 4 m/s 759 mmHg 76%
    17:00 +18°C° 0.2 mm 3 m/s 759 mmHg 80%
    18:00 +17°C° 0.2 mm 3 m/s 759 mmHg 85%
    19:00 +15°C° 0.2 mm 2 m/s 760 mmHg 90%
    20:00 +15°C° 0 mm 2 m/s 760 mmHg 92%
    21:00 +14°C° 0 mm 2 m/s 761 mmHg 94%
    22:00 +14°C° 0 mm 1 m/s 761 mmHg 95%
    23:00 +14°C° 0 mm 1 m/s 761 mmHg 96%

    Poimâine, 19 Octombrie, Vineri

    Timp Temperatura Precipitaţii Vânt Presiune Umiditate
    00:00 +14°C° 0 mm 1 m/s 761 mmHg 96%
    01:00 +13°C° 0 mm 1 m/s 761 mmHg 96%
    02:00 +13°C° 0 mm 1 m/s 761 mmHg 96%
    03:00 +13°C° 0 mm 1 m/s 760 mmHg 97%
    04:00 +13°C° 0 mm 1 m/s 760 mmHg 97%
    05:00 +13°C° 0 mm 2 m/s 760 mmHg 95%
    06:00 +13°C° 0 mm 3 m/s 760 mmHg 94%
    07:00 +14°C° 0 mm 3 m/s 760 mmHg 92%
    08:00 +17°C° 0 mm 4 m/s 760 mmHg 80%
    09:00 +20°C° 0 mm 5 m/s 760 mmHg 68%
    10:00 +22°C° 0 mm 5 m/s 759 mmHg 56%
    11:00 +25°C° 0 mm 5 m/s 758 mmHg 52%
    12:00 +26°C° 0 mm 6 m/s 758 mmHg 48%
    13:00 +27°C° 0 mm 6 m/s 757 mmHg 43%
    14:00 +27°C° 0 mm 6 m/s 756 mmHg 44%
    15:00 +27°C° 0 mm 5 m/s 756 mmHg 45%
    16:00 +27°C° 0 mm 5 m/s 755 mmHg 46%
    17:00 +26°C° 0 mm 5 m/s 755 mmHg 47%
    18:00 +25°C° 0 mm 4 m/s 755 mmHg 48%
    19:00 +23°C° 0 mm 4 m/s 755 mmHg 49%
    20:00 +23°C° 0 mm 4 m/s 755 mmHg 47%
    21:00 +23°C° 0 mm 4 m/s 754 mmHg 45%
    22:00 +23°C° 0 mm 4 m/s 754 mmHg 42%
    23:00 +21°C° 0 mm 4 m/s 755 mmHg 50%

    20 Octombrie, Sâmbătă

    Timp Temperatura Precipitaţii Vânt Presiune Umiditate
    00:00 +20°C° 0 mm 4 m/s 755 mmHg 58%
    01:00 +18°C° 0 mm 4 m/s 755 mmHg 66%
    02:00 +17°C° 0.1 mm 4 m/s 756 mmHg 74%
    03:00 +14°C° 0.1 mm 3 m/s 757 mmHg 81%
    04:00 +13°C° 0.1 mm 3 m/s 757 mmHg 88%
    05:00 +12°C° 0.5 mm 3 m/s 758 mmHg 91%
    06:00 +12°C° 0.5 mm 3 m/s 759 mmHg 93%
    07:00 +12°C° 0.5 mm 3 m/s 760 mmHg 95%
    08:00 +13°C° 0.1 mm 3 m/s 760 mmHg 85%
    09:00 +14°C° 0.1 mm 3 m/s 760 mmHg 76%
    10:00 +16°C° 0.1 mm 3 m/s 761 mmHg 67%
    11:00 +17°C° 0 mm 3 m/s 761 mmHg 62%
    12:00 +18°C° 0 mm 3 m/s 761 mmHg 57%
    13:00 +19°C° 0 mm 3 m/s 761 mmHg 52%
    14:00 +19°C° 0 mm 3 m/s 761 mmHg 52%
    15:00 +19°C° 0 mm 3 m/s 761 mmHg 52%
    16:00 +19°C° 0 mm 3 m/s 761 mmHg 52%
    17:00 +17°C° 0 mm 3 m/s 761 mmHg 58%
    18:00 +14°C° 0 mm 3 m/s 762 mmHg 65%
    19:00 +13°C° 0 mm 3 m/s 763 mmHg 71%
    20:00 +13°C° 0 mm 2 m/s 763 mmHg 77%
    21:00 +12°C° 0 mm 2 m/s 764 mmHg 83%
    22:00 +9°C° 0 mm 2 m/s 764 mmHg 88%
    23:00 +10°C° 0 mm 1 m/s 764 mmHg 90%

    21 Octombrie, Duminică

    Timp Temperatura Precipitaţii Vânt Presiune Umiditate
    00:00 +10°C° 0 mm 1 m/s 764 mmHg 91%
    01:00 +9°C° 0 mm 1 m/s 764 mmHg 92%
    02:00 +9°C° 0 mm 1 m/s 764 mmHg 93%
    03:00 +9°C° 0 mm 1 m/s 764 mmHg 93%
    04:00 +9°C° 0 mm 1 m/s 764 mmHg 94%
    05:00 +10°C° 0 mm 1 m/s 764 mmHg 90%
    06:00 +11°C° 0 mm 1 m/s 764 mmHg 86%
    07:00 +12°C° 0 mm 1 m/s 764 mmHg 82%
    08:00 +14°C° 0 mm 1 m/s 763 mmHg 70%
    09:00 +18°C° 0 mm 1 m/s 763 mmHg 59%
    10:00 +20°C° 0 mm 1 m/s 763 mmHg 48%
    11:00 +21°C° 0 mm 2 m/s 762 mmHg 44%
    12:00 +23°C° 0 mm 2 m/s 761 mmHg 41%
    13:00 +24°C° 0 mm 2 m/s 761 mmHg 38%
    14:00 +24°C° 0 mm 2 m/s 760 mmHg 39%
    15:00 +24°C° 0 mm 2 m/s 759 mmHg 41%
    16:00 +24°C° 0 mm 3 m/s 759 mmHg 43%
    17:00 +20°C° 0 mm 2 m/s 759 mmHg 52%
    18:00 +18°C° 0 mm 2 m/s 759 mmHg 62%
    19:00 +16°C° 0 mm 2 m/s 760 mmHg 71%
    20:00 +15°C° 0 mm 1 m/s 760 mmHg 75%
    21:00 +14°C° 0 mm 1 m/s 760 mmHg 79%
    22:00 +12°C° 0 mm 0 m/s 760 mmHg 82%
    23:00 +13°C° 0 mm 1 m/s 759 mmHg 82%

    22 Octombrie, Luni

    Timp Temperatura Precipitaţii Vânt Presiune Umiditate
    00:00 +13°C° 0 mm 1 m/s 759 mmHg 81%
    01:00 +12°C° 0 mm 1 m/s 758 mmHg 81%
    02:00 +12°C° 0 mm 1 m/s 758 mmHg 80%
    03:00 +13°C° 0 mm 2 m/s 758 mmHg 79%
    04:00 +13°C° 0 mm 2 m/s 758 mmHg 78%
    05:00 +14°C° 0 mm 2 m/s 758 mmHg 75%
    06:00 +14°C° 0 mm 3 m/s 758 mmHg 72%
    07:00 +16°C° 0 mm 3 m/s 758 mmHg 69%
    08:00 +19°C° 0 mm 3 m/s 757 mmHg 62%
    09:00 +22°C° 0 mm 4 m/s 757 mmHg 54%
    10:00 +26°C° 0 mm 4 m/s 757 mmHg 47%
    11:00 +27°C° 0 mm 4 m/s 756 mmHg 43%
    12:00 +28°C° 0 mm 4 m/s 755 mmHg 39%
    13:00 +29°C° 0 mm 4 m/s 755 mmHg 36%
    14:00 +29°C° 0 mm 4 m/s 754 mmHg 36%
    15:00 +29°C° 0 mm 4 m/s 753 mmHg 37%
    16:00 +29°C° 0 mm 4 m/s 753 mmHg 37%
    17:00 +27°C° 0 mm 4 m/s 753 mmHg 42%
    18:00 +25°C° 0 mm 4 m/s 753 mmHg 47%
    19:00 +22°C° 0 mm 4 m/s 754 mmHg 51%
    20:00 +21°C° 0.1 mm 4 m/s 754 mmHg 59%
    21:00 +19°C° 0.1 mm 4 m/s 755 mmHg 66%
    22:00 +18°C° 0.1 mm 4 m/s 756 mmHg 74%
    23:00 +17°C° 0.2 mm 4 m/s 756 mmHg 81%
    Arată mai mult